,,Stat5,,Stat1,,Stat2,,Stat3,,Stat4,,Wind1,,Wind1,
time,status,PA1M_AVG,status,PR1M_SUM,status,RH1M_AVG,status,SR1M_AVG,status,TA1M_AVG,status,W1dAve1m,status,W1sAve1m,
2002-03-26, 00:00:00,VALID,916.995,VALID,0,VALID,97.0234,VALID,0,VALID,21.5151,VALID,185,VALID,0,
2002-03-26, 00:01:00,VALID,916.964,VALID,0,VALID,96.9878,VALID,-0.0169808,VALID,21.5191,VALID,183,VALID,0,
2002-03-26, 00:02:00,VALID,916.941,VALID,0,VALID,96.9738,VALID,0,VALID,21.5189,VALID,172,VALID,0.223684,
2002-03-26, 00:03:00,VALID,916.935,VALID,0,VALID,97.0145,VALID,0.0169808,VALID,21.5221,VALID,165,VALID,0.294202,
2002-03-26, 00:04:00,VALID,916.908,VALID,0,VALID,97.0107,VALID,-0.0169808,VALID,21.5256,VALID,165,VALID,0.34375,
2002-03-26, 00:05:00,VALID,916.901,VALID,0,VALID,96.9929,VALID,-0.0169808,VALID,21.5218,VALID,165,VALID,0.382813,
2002-03-26, 00:06:00,VALID,916.892,VALID,0,VALID,96.9395,VALID,0,VALID,21.5027,VALID,165,VALID,0.292383,
2002-03-26, 00:07:00,VALID,916.876,VALID,0,VALID,96.9878,VALID,0,VALID,21.5165,VALID,165,VALID,0.0244141,
2002-03-26, 00:08:00,VALID,916.837,VALID,0,VALID,97.0133,VALID,-0.0339617,VALID,21.5065,VALID,165,VALID,0.239984,
2002-03-26, 00:09:00,VALID,916.789,VALID,0,VALID,96.9802,VALID,0,VALID,21.5027,VALID,167,VALID,0.149219,
2002-03-26, 00:10:00,VALID,916.736,VALID,0,VALID,97.0158,VALID,0,VALID,21.4992,VALID,167,VALID,0.0988281,
2002-03-26, 00:11:00,VALID,916.679,VALID,0,VALID,96.9929,VALID,-0.0169808,VALID,21.4995,VALID,167,VALID,0.0954392,
2002-03-26, 00:12:00,VALID,916.633,VALID,0,VALID,97.0717,VALID,-0.0169808,VALID,21.5027,VALID,158,VALID,0.0958615,
2002-03-26, 00:13:00,VALID,916.633,VALID,0,VALID,97.0781,VALID,0,VALID,21.5089,VALID,158,VALID,0.0146484,
2002-03-26, 00:14:00,VALID,916.601,VALID,0,VALID,97.0272,VALID,0,VALID,21.5226,VALID,158,VALID,0.106771,
2002-03-26, 00:15:00,VALID,916.546,VALID,0,VALID,97.0361,VALID,0,VALID,21.5156,VALID,157,VALID,0.00600962,
2002-03-26, 00:16:00,VALID,916.509,VALID,0,VALID,96.9993,VALID,-0.0169808,VALID,21.5259,VALID,115,VALID,0.397786,
2002-03-26, 00:17:00,VALID,916.479,VALID,0,VALID,96.9649,VALID,-0.0169808,VALID,21.5129,VALID,87,VALID,0.488281,
2002-03-26, 00:18:00,VALID,916.465,VALID,0,VALID,97.026,VALID,0,VALID,21.5094,VALID,72,VALID,0.428348,
2002-03-26, 00:19:00,VALID,916.46,VALID,0,VALID,96.9255,VALID,0,VALID,21.4965,VALID,102,VALID,0.573057,
2002-03-26, 00:20:00,VALID,916.427,VALID,0,VALID,96.8746,VALID,-0.0509425,VALID,21.4742,VALID,105,VALID,0.100977,
2002-03-26, 00:21:00,VALID,916.413,VALID,0,VALID,96.9382,VALID,-0.0509425,VALID,21.455,VALID,105,VALID,0,
2002-03-26, 00:22:00,VALID,916.371,VALID,0,VALID,97.0145,VALID,-0.0169808,VALID,21.4575,VALID,105,VALID,0,
2002-03-26, 00:23:00,VALID,916.346,VALID,0,VALID,97.0743,VALID,-0.0339617,VALID,21.4645,VALID,105,VALID,0,
2002-03-26, 00:24:00,VALID,916.328,VALID,0,VALID,97.0972,VALID,0,VALID,21.4577,VALID,105,VALID,0,
2002-03-26, 00:25:00,VALID,916.303,VALID,0,VALID,97.1074,VALID,0.0169808,VALID,21.4701,VALID,105,VALID,0,
2002-03-26, 00:26:00,VALID,916.268,VALID,0,VALID,97.0743,VALID,0,VALID,21.4669,VALID,105,VALID,0.00929054,
2002-03-26, 00:27:00,VALID,916.235,VALID,0,VALID,97.0819,VALID,0.0169808,VALID,21.4739,VALID,105,VALID,0,
2002-03-26, 00:28:00,VALID,916.205,VALID,0,VALID,97.101,VALID,-0.0169808,VALID,21.4669,VALID,58,VALID,0.182812,
2002-03-26, 00:29:00,VALID,916.189,VALID,0,VALID,97.0896,VALID,0.0169808,VALID,21.4828,VALID,36,VALID,0.397236,
2002-03-26, 00:30:00,VALID,916.17,VALID,0,VALID,97.026,VALID,0,VALID,21.4798,VALID,33,VALID,0.481061,
2002-03-26, 00:31:00,VALID,916.162,VALID,0,VALID,97.0107,VALID,0,VALID,21.4901,VALID,31,VALID,0.531033,
2002-03-26, 00:32:00,VALID,916.146,VALID,0,VALID,96.9014,VALID,-0.0169808,VALID,21.5033,VALID,33,VALID,0.695313,
2002-03-26, 00:33:00,VALID,916.133,VALID,0,VALID,96.8314,VALID,0,VALID,21.4736,VALID,29,VALID,0.459736,
2002-03-26, 00:34:00,VALID,916.107,VALID,0,VALID,96.8212,VALID,0,VALID,21.4545,VALID,27,VALID,0.410156,
2002-03-26, 00:35:00,VALID,916.092,VALID,0,VALID,96.689,VALID,0,VALID,21.4316,VALID,44,VALID,0.585045,
2002-03-26, 00:36:00,VALID,916.086,VALID,0,VALID,96.7144,VALID,0,VALID,21.4122,VALID,24,VALID,0.539485,
2002-03-26, 00:37:00,VALID,916.096,VALID,0,VALID,96.8251,VALID,0,VALID,21.4095,VALID,9,VALID,0.465533,
2002-03-26, 00:38:00,VALID,916.11,VALID,0,VALID,96.8365,VALID,0.0169808,VALID,21.419,VALID,15,VALID,0.60625,
2002-03-26, 00:39:00,VALID,916.119,VALID,0,VALID,96.8607,VALID,0.0169808,VALID,21.4052,VALID,4,VALID,0.652244,
2002-03-26, 00:40:00,VALID,916.112,VALID,0,VALID,96.8912,VALID,0,VALID,21.4093,VALID,15,VALID,0.644637,
2002-03-26, 00:41:00,VALID,916.108,VALID,0,VALID,96.8797,VALID,0,VALID,21.4093,VALID,11,VALID,0.527344,
2002-03-26, 00:42:00,VALID,916.076,VALID,0,VALID,96.9001,VALID,0,VALID,21.402,VALID,7,VALID,0.333036,
2002-03-26, 00:43:00,VALID,916.043,VALID,0,VALID,96.9522,VALID,0.0509425,VALID,21.4047,VALID,359,VALID,0.447115,
2002-03-26, 00:44:00,VALID,916.025,VALID,0,VALID,96.9192,VALID,0.0169808,VALID,21.3953,VALID,343,VALID,0.497159,
2002-03-26, 00:45:00,VALID,916.005,VALID,0,VALID,96.867,VALID,0.0679233,VALID,21.3694,VALID,344,VALID,0.759115,
2002-03-26, 00:46:00,VALID,916.018,VALID,0,VALID,96.9001,VALID,0.0679233,VALID,21.3436,VALID,350,VALID,0.600329,
2002-03-26, 00:47:00,VALID,916.016,VALID,0,VALID,96.9433,VALID,0.0509425,VALID,21.3242,VALID,1,VALID,0.717949,
2002-03-26, 00:48:00,VALID,916.023,VALID,0,VALID,97.0934,VALID,0.0169808,VALID,21.3209,VALID,12,VALID,0.830078,
2002-03-26, 00:49:00,VALID,916.023,VALID,0,VALID,97.2129,VALID,0.0339617,VALID,21.3411,VALID,14,VALID,0.80692,
2002-03-26, 00:50:00,VALID,916.031,VALID,0,VALID,97.3286,VALID,0.0509425,VALID,21.3401,VALID,11,VALID,0.535684,
2002-03-26, 00:51:00,VALID,916.013,VALID,0,VALID,97.2574,VALID,0.0679233,VALID,21.3438,VALID,3,VALID,0.514246,
2002-03-26, 00:52:00,VALID,915.997,VALID,0,VALID,97.1379,VALID,0.0509425,VALID,21.3182,VALID,360,VALID,0.296875,
2002-03-26, 00:53:00,VALID,915.999,VALID,0,VALID,97.1124,VALID,0.0339617,VALID,21.308,VALID,360,VALID,0.326322,
2002-03-26, 00:54:00,VALID,916.001,VALID,0,VALID,97.1379,VALID,0.0339617,VALID,21.3018,VALID,359,VALID,0.257179,
2002-03-26, 00:55:00,VALID,915.999,VALID,0,VALID,97.2078,VALID,0.0679233,VALID,21.3244,VALID,355,VALID,0.159951,
2002-03-26, 00:56:00,VALID,916.005,VALID,0,VALID,97.3159,VALID,0.0509425,VALID,21.3597,VALID,350,VALID,0.101339,
2002-03-26, 00:57:00,VALID,916.004,VALID,0,VALID,97.3884,VALID,0.0169808,VALID,21.3953,VALID,350,VALID,0.144832,
2002-03-26, 00:58:00,VALID,916.009,VALID,0,VALID,97.3782,VALID,0.0339617,VALID,21.4149,VALID,350,VALID,0.141098,
2002-03-26, 00:59:00,VALID,916.002,VALID,0,VALID,97.2167,VALID,0.0849042,VALID,21.4023,VALID,350,VALID,0.130859,
2002-03-26, 01:00:00,VALID,915.995,VALID,0,VALID,97.1875,VALID,0,VALID,21.3823,VALID,298,VALID,0.122533,
2002-03-26, 01:01:00,VALID,915.992,VALID,0,VALID,97.2129,VALID,0.0169808,VALID,21.3891,VALID,293,VALID,0,
2002-03-26, 01:02:00,VALID,915.992,VALID,0,VALID,97.246,VALID,0,VALID,21.3888,VALID,293,VALID,0.0128906,
2002-03-26, 01:03:00,VALID,916.007,VALID,0,VALID,97.2561,VALID,0.0339617,VALID,21.4055,VALID,293,VALID,0.0334821,
2002-03-26, 01:04:00,VALID,916.01,VALID,0,VALID,97.2498,VALID,0.0509425,VALID,21.399,VALID,293,VALID,0.111275,
2002-03-26, 01:05:00,VALID,915.999,VALID,0,VALID,97.2574,VALID,0,VALID,21.3923,VALID,293,VALID,0.0845588,
2002-03-26, 01:06:00,VALID,915.99,VALID,0,VALID,97.2777,VALID,0.0339617,VALID,21.3759,VALID,293,VALID,0,
2002-03-26, 01:07:00,VALID,915.961,VALID,0,VALID,97.354,VALID,0.0679233,VALID,21.3888,VALID,291,VALID,0.0342548,
2002-03-26, 01:08:00,VALID,915.954,VALID,0,VALID,97.3401,VALID,0.0339617,VALID,21.37,VALID,281,VALID,0.342694,
2002-03-26, 01:09:00,VALID,915.946,VALID,0,VALID,97.3388,VALID,0.0169808,VALID,21.3506,VALID,281,VALID,0.347862,
2002-03-26, 01:10:00,VALID,915.951,VALID,0,VALID,97.3718,VALID,0,VALID,21.3344,VALID,281,VALID,0.306696,
2002-03-26, 01:11:00,VALID,915.963,VALID,0,VALID,97.396,VALID,0.0169808,VALID,21.311,VALID,317,VALID,0.413862,
2002-03-26, 01:12:00,VALID,915.988,VALID,0,VALID,97.5194,VALID,0.0509425,VALID,21.3438,VALID,356,VALID,0.566051,
2002-03-26, 01:13:00,VALID,916.019,VALID,0,VALID,97.5473,VALID,0.0169808,VALID,21.3573,VALID,6,VALID,0.542969,
2002-03-26, 01:14:00,VALID,916.025,VALID,0,VALID,97.5664,VALID,0.0169808,VALID,21.3632,VALID,6,VALID,0.471628,
2002-03-26, 01:15:00,VALID,916.025,VALID,0,VALID,97.5486,VALID,0.0169808,VALID,21.3662,VALID,7,VALID,0.377003,
2002-03-26, 01:16:00,VALID,916.002,VALID,0,VALID,97.4367,VALID,0,VALID,21.3436,VALID,347,VALID,0.373828,
2002-03-26, 01:17:00,VALID,915.971,VALID,0,VALID,97.4481,VALID,0,VALID,21.3406,VALID,9,VALID,0.502679,
2002-03-26, 01:18:00,VALID,915.938,VALID,0,VALID,97.4507,VALID,0.0169808,VALID,21.3506,VALID,10,VALID,0.265414,
2002-03-26, 01:19:00,VALID,915.922,VALID,0,VALID,97.5015,VALID,0,VALID,21.353,VALID,11,VALID,0.321461,
2002-03-26, 01:20:00,VALID,915.91,VALID,0,VALID,97.438,VALID,0.0339617,VALID,21.3761,VALID,8,VALID,0.760491,
2002-03-26, 01:21:00,VALID,915.892,VALID,0,VALID,97.3337,VALID,0.0509425,VALID,21.353,VALID,22,VALID,0.861378,
2002-03-26, 01:22:00,VALID,915.878,VALID,0,VALID,97.2116,VALID,0.0509425,VALID,21.3341,VALID,27,VALID,0.978463,
2002-03-26, 01:23:00,VALID,915.866,VALID,0,VALID,97.1201,VALID,0.0509425,VALID,21.3086,VALID,31,VALID,0.886513,
2002-03-26, 01:24:00,VALID,915.842,VALID,0,VALID,97.1048,VALID,0,VALID,21.2927,VALID,21,VALID,0.706027,
2002-03-26, 01:25:00,VALID,915.834,VALID,0,VALID,97.0374,VALID,0.0339617,VALID,21.2631,VALID,29,VALID,0.649038,
2002-03-26, 01:26:00,VALID,915.827,VALID,0,VALID,97.1023,VALID,-0.0169808,VALID,21.2679,VALID,30,VALID,0.634706,
2002-03-26, 01:27:00,VALID,915.813,VALID,0,VALID,97.1404,VALID,-0.0679233,VALID,21.2749,VALID,13,VALID,0.780816,
2002-03-26, 01:28:00,VALID,915.811,VALID,0,VALID,97.1608,VALID,-0.0679233,VALID,21.2878,VALID,17,VALID,0.781456,
2002-03-26, 01:29:00,VALID,915.809,VALID,0,VALID,97.0412,VALID,-0.0849042,VALID,21.2614,VALID,22,VALID,1.05088,
2002-03-26, 01:30:00,VALID,915.786,VALID,0,VALID,96.9344,VALID,-0.0849042,VALID,21.2428,VALID,27,VALID,1.09219,
2002-03-26, 01:31:00,VALID,915.772,VALID,0,VALID,96.8861,VALID,-0.101885,VALID,21.2138,VALID,33,VALID,0.844643,
2002-03-26, 01:32:00,VALID,915.765,VALID,0,VALID,97.0082,VALID,-0.0849042,VALID,21.1941,VALID,32,VALID,0.686022,
2002-03-26, 01:33:00,VALID,915.744,VALID,0,VALID,97.0921,VALID,-0.118866,VALID,21.2041,VALID,32,VALID,0.772289,
2002-03-26, 01:34:00,VALID,915.73,VALID,0,VALID,97.1099,VALID,-0.0849042,VALID,21.2038,VALID,23,VALID,0.882813,
2002-03-26, 01:35:00,VALID,915.728,VALID,0,VALID,96.8963,VALID,-0.101885,VALID,21.1612,VALID,20,VALID,1.20313,
2002-03-26, 01:36:00,VALID,915.699,VALID,0,VALID,96.8289,VALID,-0.0849042,VALID,21.1292,VALID,12,VALID,0.856419,
2002-03-26, 01:37:00,VALID,915.697,VALID,0,VALID,96.8289,VALID,-0.0849042,VALID,21.1095,VALID,17,VALID,1.01974,
2002-03-26, 01:38:00,VALID,915.674,VALID,0,VALID,96.8479,VALID,-0.101885,VALID,21.1071,VALID,18,VALID,0.882143,
2002-03-26, 01:39:00,VALID,915.648,VALID,0,VALID,96.8657,VALID,-0.0679233,VALID,21.0972,VALID,23,VALID,1.01903,
2002-03-26, 01:40:00,VALID,915.647,VALID,0,VALID,96.8492,VALID,-0.101885,VALID,21.0743,VALID,31,VALID,0.935606,
2002-03-26, 01:41:00,VALID,915.653,VALID,0,VALID,96.9675,VALID,-0.0169808,VALID,21.0732,VALID,29,VALID,0.873047,
2002-03-26, 01:42:00,VALID,915.652,VALID,0,VALID,96.9344,VALID,0.0169808,VALID,21.0592,VALID,29,VALID,0.86986,
2002-03-26, 01:43:00,VALID,915.661,VALID,0,VALID,96.9306,VALID,0,VALID,21.057,VALID,28,VALID,0.995192,
2002-03-26, 01:44:00,VALID,915.647,VALID,0,VALID,96.8518,VALID,0.0169808,VALID,21.0312,VALID,34,VALID,1.0918,
2002-03-26, 01:45:00,VALID,915.632,VALID,0,VALID,96.8441,VALID,0.0169808,VALID,21.0021,VALID,32,VALID,1.00089,
2002-03-26, 01:46:00,VALID,915.625,VALID,0,VALID,96.8886,VALID,0,VALID,20.9765,VALID,33,VALID,0.920186,
2002-03-26, 01:47:00,VALID,915.62,VALID,0,VALID,96.9637,VALID,0,VALID,20.9698,VALID,28,VALID,0.866498,
2002-03-26, 01:48:00,VALID,915.609,VALID,0,VALID,97.0234,VALID,-0.0679233,VALID,20.9579,VALID,18,VALID,0.761384,
2002-03-26, 01:49:00,VALID,915.605,VALID,0,VALID,97.0489,VALID,-0.101885,VALID,20.9679,VALID,17,VALID,0.79367,
2002-03-26, 01:50:00,VALID,915.599,VALID,0,VALID,97.0552,VALID,-0.101885,VALID,20.9585,VALID,11,VALID,0.475929,
2002-03-26, 01:51:00,VALID,915.596,VALID,0,VALID,97.1748,VALID,-0.0849042,VALID,20.9644,VALID,18,VALID,0.325452,
2002-03-26, 01:52:00,VALID,915.586,VALID,0,VALID,97.2218,VALID,-0.101885,VALID,20.9843,VALID,16,VALID,0.433259,
2002-03-26, 01:53:00,VALID,915.587,VALID,0,VALID,97.1671,VALID,-0.0849042,VALID,20.9776,VALID,18,VALID,0.539864,
2002-03-26, 01:54:00,VALID,915.59,VALID,0,VALID,97.1557,VALID,-0.101885,VALID,20.9811,VALID,16,VALID,0.502604,
2002-03-26, 01:55:00,VALID,915.594,VALID,0,VALID,97.1163,VALID,-0.101885,VALID,20.9679,VALID,15,VALID,0.639106,
2002-03-26, 01:56:00,VALID,915.579,VALID,0,VALID,97.1163,VALID,-0.0169808,VALID,20.9604,VALID,15,VALID,0.537212,
2002-03-26, 01:57:00,VALID,915.545,VALID,0,VALID,97.0311,VALID,0,VALID,20.9475,VALID,28,VALID,0.840345,
2002-03-26, 01:58:00,VALID,915.508,VALID,0,VALID,97.0044,VALID,0.0509425,VALID,20.9141,VALID,37,VALID,0.799414,
2002-03-26, 01:59:00,VALID,915.482,VALID,0,VALID,97.0654,VALID,0,VALID,20.9149,VALID,19,VALID,0.868973,
2002-03-26, 02:00:00,VALID,915.452,VALID,0,VALID,97.0717,VALID,0,VALID,20.9084,VALID,32,VALID,0.868454,
2002-03-26, 02:01:00,VALID,915.45,VALID,0,VALID,96.9929,VALID,0.0339617,VALID,20.8923,VALID,22,VALID,0.959099,
2002-03-26, 02:02:00,VALID,915.441,VALID,0,VALID,97.0501,VALID,0.0339617,VALID,20.8664,VALID,18,VALID,0.686161,
2002-03-26, 02:03:00,VALID,915.41,VALID,0,VALID,97.1468,VALID,0.0169808,VALID,20.8726,VALID,14,VALID,0.917268,
2002-03-26, 02:04:00,VALID,915.394,VALID,0,VALID,97.1722,VALID,0.0339617,VALID,20.8796,VALID,14,VALID,0.841005,
2002-03-26, 02:05:00,VALID,915.38,VALID,0,VALID,97.1061,VALID,0.0339617,VALID,20.8764,VALID,5,VALID,0.852385,
2002-03-26, 02:06:00,VALID,915.366,VALID,0,VALID,97.1468,VALID,0.0169808,VALID,20.8696,VALID,7,VALID,0.815179,
2002-03-26, 02:07:00,VALID,915.34,VALID,0,VALID,97.1264,VALID,0.0169808,VALID,20.86,VALID,15,VALID,0.8123,
2002-03-26, 02:08:00,VALID,915.328,VALID,0,VALID,97.1671,VALID,0.0339617,VALID,20.8592,VALID,15,VALID,0.33357,
2002-03-26, 02:09:00,VALID,915.302,VALID,0,VALID,97.1976,VALID,0,VALID,20.8562,VALID,22,VALID,0.578342,
2002-03-26, 02:10:00,VALID,915.286,VALID,0,VALID,97.2231,VALID,0.0339617,VALID,20.8667,VALID,60,VALID,0.551192,
2002-03-26, 02:11:00,VALID,915.264,VALID,0,VALID,97.2116,VALID,0,VALID,20.8497,VALID,49,VALID,0.685296,
2002-03-26, 02:12:00,VALID,915.252,VALID,0,VALID,97.2154,VALID,0,VALID,20.8575,VALID,62,VALID,0.910156,
2002-03-26, 02:13:00,VALID,915.24,VALID,0,VALID,97.2612,VALID,0.0169808,VALID,20.8384,VALID,53,VALID,1.02076,
2002-03-26, 02:14:00,VALID,915.231,VALID,0,VALID,97.335,VALID,0,VALID,20.815,VALID,50,VALID,0.789696,
2002-03-26, 02:15:00,VALID,915.208,VALID,0,VALID,97.3629,VALID,0,VALID,20.7956,VALID,37,VALID,0.805607,
2002-03-26, 02:16:00,VALID,915.175,VALID,0,VALID,97.4367,VALID,0.0169808,VALID,20.7794,VALID,33,VALID,0.490848,
2002-03-26, 02:17:00,VALID,915.159,VALID,0,VALID,97.5105,VALID,0.0169808,VALID,20.763,VALID,59,VALID,0.410056,
2002-03-26, 02:18:00,VALID,915.151,VALID,0,VALID,97.5066,VALID,0,VALID,20.7633,VALID,84,VALID,0.499789,
2002-03-26, 02:19:00,VALID,915.143,VALID,0,VALID,97.485,VALID,0.0169808,VALID,20.7603,VALID,92,VALID,0.551809,
2002-03-26, 02:20:00,VALID,915.13,VALID,0,VALID,97.5372,VALID,0,VALID,20.7342,VALID,88,VALID,0.714732,
2002-03-26, 02:21:00,VALID,915.113,VALID,0,VALID,97.63,VALID,0,VALID,20.7146,VALID,84,VALID,0.456473,
2002-03-26, 02:22:00,VALID,915.083,VALID,0,VALID,97.6669,VALID,0.0169808,VALID,20.7148,VALID,84,VALID,0.467093,
2002-03-26, 02:23:00,VALID,915.063,VALID,0,VALID,97.6974,VALID,0,VALID,20.6952,VALID,83,VALID,0.322266,
2002-03-26, 02:24:00,VALID,915.047,VALID,0,VALID,97.7419,VALID,0.0169808,VALID,20.679,VALID,83,VALID,0.33347,
2002-03-26, 02:25:00,VALID,915.029,VALID,0,VALID,97.7686,VALID,0.0169808,VALID,20.689,VALID,83,VALID,0.41887,
2002-03-26, 02:26:00,VALID,915.02,VALID,0,VALID,97.7584,VALID,0,VALID,20.6771,VALID,83,VALID,0.457227,
2002-03-26, 02:27:00,VALID,915.016,VALID,0,VALID,97.7393,VALID,0,VALID,20.6475,VALID,88,VALID,0.620759,
2002-03-26, 02:28:00,VALID,915.002,VALID,0,VALID,97.8004,VALID,0,VALID,20.6319,VALID,94,VALID,0.494932,
2002-03-26, 02:29:00,VALID,914.995,VALID,0,VALID,97.8512,VALID,-0.0169808,VALID,20.6052,VALID,94,VALID,0.300551,
2002-03-26, 02:30:00,VALID,914.994,VALID,0,VALID,97.9059,VALID,0.0169808,VALID,20.6085,VALID,94,VALID,0.176339,
2002-03-26, 02:31:00,VALID,914.988,VALID,0,VALID,97.9682,VALID,-0.0169808,VALID,20.6222,VALID,94,VALID,0.215345,
2002-03-26, 02:32:00,VALID,914.992,VALID,0,VALID,97.9848,VALID,-0.0169808,VALID,20.612,VALID,94,VALID,0.0625,
2002-03-26, 02:33:00,VALID,915.008,VALID,0,VALID,97.8767,VALID,-0.0169808,VALID,20.5831,VALID,54,VALID,0.437706,
2002-03-26, 02:34:00,VALID,915.004,VALID,0,VALID,97.864,VALID,-0.0339617,VALID,20.5581,VALID,278,VALID,0.374554,
2002-03-26, 02:35:00,VALID,914.987,VALID,0,VALID,97.9759,VALID,-0.0339617,VALID,20.5678,VALID,273,VALID,0.389623,
2002-03-26, 02:36:00,VALID,914.973,VALID,0,VALID,98.042,VALID,-0.0509425,VALID,20.5802,VALID,244,VALID,0.504735,
2002-03-26, 02:37:00,VALID,914.943,VALID,0,VALID,98.103,VALID,-0.0339617,VALID,20.603,VALID,244,VALID,0.148655,
2002-03-26, 02:38:00,VALID,914.927,VALID,0,VALID,98.1399,VALID,-0.0169808,VALID,20.6095,VALID,244,VALID,0,
2002-03-26, 02:39:00,VALID,914.917,VALID,0,VALID,98.1653,VALID,-0.0169808,VALID,20.6125,VALID,244,VALID,0,
2002-03-26, 02:40:00,VALID,914.914,VALID,0,VALID,98.1958,VALID,0,VALID,20.6149,VALID,245,VALID,0.102148,
2002-03-26, 02:41:00,VALID,914.911,VALID,0,VALID,98.2149,VALID,-0.0169808,VALID,20.6386,VALID,298,VALID,0.213393,
2002-03-26, 02:42:00,VALID,914.905,VALID,0,VALID,98.2086,VALID,-0.0169808,VALID,20.6184,VALID,355,VALID,0.24451,
2002-03-26, 02:43:00,VALID,914.895,VALID,0,VALID,98.2225,VALID,-0.0679233,VALID,20.6257,VALID,355,VALID,0.19761,
2002-03-26, 02:44:00,VALID,914.898,VALID,0,VALID,98.2467,VALID,-0.0169808,VALID,20.6319,VALID,357,VALID,0.270089,
2002-03-26, 02:45:00,VALID,914.891,VALID,0,VALID,98.234,VALID,0,VALID,20.6184,VALID,358,VALID,0.273838,
2002-03-26, 02:46:00,VALID,914.894,VALID,0,VALID,98.1869,VALID,0.0169808,VALID,20.602,VALID,50,VALID,0.154772,
2002-03-26, 02:47:00,VALID,914.9,VALID,0,VALID,98.1908,VALID,0,VALID,20.5995,VALID,54,VALID,0.167352,
2002-03-26, 02:48:00,VALID,914.884,VALID,0,VALID,98.1577,VALID,-0.0509425,VALID,20.5707,VALID,54,VALID,0.231473,
2002-03-26, 02:49:00,VALID,914.881,VALID,0,VALID,98.1628,VALID,0,VALID,20.5575,VALID,54,VALID,0,
2002-03-26, 02:50:00,VALID,914.874,VALID,0,VALID,98.1857,VALID,0,VALID,20.5546,VALID,54,VALID,0.0172822,
2002-03-26, 02:51:00,VALID,914.879,VALID,0,VALID,98.2022,VALID,-0.0169808,VALID,20.5546,VALID,50,VALID,0.0731337,
2002-03-26, 02:52:00,VALID,914.896,VALID,0,VALID,98.2162,VALID,-0.0169808,VALID,20.5543,VALID,40,VALID,0.0602385,
2002-03-26, 02:53:00,VALID,914.918,VALID,0,VALID,98.2048,VALID,0.0169808,VALID,20.5449,VALID,17,VALID,0.184896,
2002-03-26, 02:54:00,VALID,914.93,VALID,0,VALID,98.2225,VALID,0,VALID,20.5387,VALID,302,VALID,0.439063,
2002-03-26, 02:55:00,VALID,914.941,VALID,0,VALID,98.2365,VALID,0,VALID,20.5382,VALID,297,VALID,0.101339,
2002-03-26, 02:56:00,VALID,914.96,VALID,0,VALID,98.2505,VALID,0,VALID,20.5575,VALID,298,VALID,0.072424,
2002-03-26, 02:57:00,VALID,914.97,VALID,0,VALID,98.2899,VALID,0,VALID,20.5869,VALID,298,VALID,0.0124081,
2002-03-26, 02:58:00,VALID,914.968,VALID,0,VALID,98.295,VALID,0.0169808,VALID,20.5995,VALID,298,VALID,0,
2002-03-26, 02:59:00,VALID,914.961,VALID,0,VALID,98.2925,VALID,0,VALID,20.6092,VALID,298,VALID,0,
2002-03-26, 03:00:00,VALID,914.939,VALID,0,VALID,98.2709,VALID,0,VALID,20.6289,VALID,298,VALID,0,
2002-03-26, 03:01:00,VALID,914.926,VALID,0,VALID,98.2454,VALID,0,VALID,20.6127,VALID,297,VALID,0.0820313,
2002-03-26, 03:02:00,VALID,914.91,VALID,0,VALID,98.2187,VALID,0.0169808,VALID,20.606,VALID,297,VALID,0.0428571,
2002-03-26, 03:03:00,VALID,914.887,VALID,0,VALID,98.1946,VALID,0,VALID,20.6195,VALID,188,VALID,0.112981,
2002-03-26, 03:04:00,VALID,914.891,VALID,0,VALID,98.1602,VALID,0,VALID,20.6025,VALID,163,VALID,0.126894,
2002-03-26, 03:05:00,VALID,914.892,VALID,0,VALID,98.178,VALID,0,VALID,20.6063,VALID,163,VALID,0,
2002-03-26, 03:06:00,VALID,914.89,VALID,0,VALID,98.1895,VALID,0,VALID,20.6063,VALID,163,VALID,0.126234,
2002-03-26, 03:07:00,VALID,914.879,VALID,0,VALID,98.2098,VALID,0,VALID,20.6324,VALID,163,VALID,0.176082,
2002-03-26, 03:08:00,VALID,914.891,VALID,0,VALID,98.1844,VALID,0,VALID,20.6227,VALID,163,VALID,0.0599609,
2002-03-26, 03:09:00,VALID,914.861,VALID,0,VALID,98.1348,VALID,0,VALID,20.6095,VALID,163,VALID,0.000223214,
2002-03-26, 03:10:00,VALID,914.846,VALID,0,VALID,98.1437,VALID,0,VALID,20.6028,VALID,163,VALID,0.187922,
2002-03-26, 03:11:00,VALID,914.825,VALID,0,VALID,98.178,VALID,0.0169808,VALID,20.6259,VALID,164,VALID,0.275735,
2002-03-26, 03:12:00,VALID,914.805,VALID,0,VALID,98.1946,VALID,0,VALID,20.6321,VALID,165,VALID,0.307813,
2002-03-26, 03:13:00,VALID,914.817,VALID,0,VALID,98.1958,VALID,0,VALID,20.6553,VALID,233,VALID,0.255008,
2002-03-26, 03:14:00,VALID,914.844,VALID,0,VALID,98.2327,VALID,0,VALID,20.6542,VALID,234,VALID,0.0789696,
2002-03-26, 03:15:00,VALID,914.867,VALID,0,VALID,98.234,VALID,0,VALID,20.6674,VALID,235,VALID,0.21176,
2002-03-26, 03:16:00,VALID,914.893,VALID,0,VALID,98.2137,VALID,0,VALID,20.6644,VALID,236,VALID,0.104241,
2002-03-26, 03:17:00,VALID,914.899,VALID,0,VALID,98.2238,VALID,0,VALID,20.6615,VALID,236,VALID,0.0739183,
2002-03-26, 03:18:00,VALID,914.886,VALID,0,VALID,98.2251,VALID,0,VALID,20.6607,VALID,236,VALID,0.112453,
2002-03-26, 03:19:00,VALID,914.88,VALID,0,VALID,98.2353,VALID,0,VALID,20.6604,VALID,236,VALID,0,
2002-03-26, 03:20:00,VALID,914.851,VALID,0,VALID,98.2251,VALID,0,VALID,20.6507,VALID,236,VALID,0,
2002-03-26, 03:21:00,VALID,914.84,VALID,0,VALID,98.2276,VALID,0,VALID,20.6642,VALID,236,VALID,0,
2002-03-26, 03:22:00,VALID,914.834,VALID,0,VALID,98.2505,VALID,0,VALID,20.6647,VALID,236,VALID,0,
2002-03-26, 03:23:00,VALID,914.823,VALID,0,VALID,98.2772,VALID,0,VALID,20.6873,VALID,236,VALID,0,
2002-03-26, 03:24:00,VALID,914.824,VALID,0,VALID,98.3103,VALID,-0.0339617,VALID,20.7072,VALID,20,VALID,0.389147,
2002-03-26, 03:25:00,VALID,914.813,VALID,0,VALID,98.2874,VALID,0,VALID,20.7159,VALID,44,VALID,0.462776,
2002-03-26, 03:26:00,VALID,914.798,VALID,0,VALID,98.2645,VALID,0,VALID,20.7121,VALID,44,VALID,0.408929,
2002-03-26, 03:27:00,VALID,914.774,VALID,0,VALID,98.2251,VALID,0,VALID,20.7022,VALID,44,VALID,0.510016,
2002-03-26, 03:28:00,VALID,914.733,VALID,0,VALID,98.192,VALID,0.0509425,VALID,20.7086,VALID,43,VALID,0.522804,
2002-03-26, 03:29:00,VALID,914.705,VALID,0,VALID,98.1285,VALID,-0.0169808,VALID,20.6962,VALID,43,VALID,0.524054,
2002-03-26, 03:30:00,VALID,914.682,VALID,0,VALID,98.0725,VALID,0,VALID,20.6766,VALID,46,VALID,0.548214,
2002-03-26, 03:31:00,VALID,914.646,VALID,0,VALID,97.9924,VALID,0,VALID,20.6736,VALID,54,VALID,0.594752,
2002-03-26, 03:32:00,VALID,914.623,VALID,0,VALID,97.9517,VALID,0,VALID,20.6478,VALID,58,VALID,0.669981,
2002-03-26, 03:33:00,VALID,914.61,VALID,0,VALID,97.9301,VALID,0,VALID,20.6251,VALID,62,VALID,0.806641,
2002-03-26, 03:34:00,VALID,914.6,VALID,0,VALID,97.911,VALID,0,VALID,20.6157,VALID,64,VALID,0.804688,
2002-03-26, 03:35:00,VALID,914.588,VALID,0,VALID,97.8856,VALID,0.0169808,VALID,20.5923,VALID,65,VALID,0.732772,
2002-03-26, 03:36:00,VALID,914.588,VALID,0,VALID,97.8474,VALID,0.0339617,VALID,20.5796,VALID,66,VALID,0.648438,
2002-03-26, 03:37:00,VALID,914.563,VALID,0,VALID,97.8271,VALID,0,VALID,20.5864,VALID,65,VALID,0.449107,